Location: Brede
(50.9167°N, 0.6000°E)
Time: 08:15:46
(UTC+00:00)

Tiros 1 - Pass Details

Date: 01 December 2020
Orbit: 630 x 663 km, 48.4° (Epoch: 16 January)

Event Time Altitude Azimuth Distance (km) Brightness Sun altitude
Rises 19:24:58 0° 280° (W) 2,990 11.7 -32.2°
Reaches altitude 10° 19:27:29 10° 271° (W) 2,072 10.6 -32.6°
Enters shadow 19:30:09 26° 244° (WSW) 1,283 9.1 -33.0°
